Total_Precipitation_Accumulation
0.16 0.23 0.30 0.32 0.27 0.21 0.18 0.21 0.34 0.33 0.38 0.49 0.60 0.64 0.81 0.89 0.82 0.77 0.72 0.70 0.76 0.88 0.90 0.90 0.95 0.95 1.01 0.97 1.12 1.12 1.20 1.31 1.43 1.41 1.43 1.40 1.35 1.31 1.36 1.44 1.39 1.55 1.73 1.83
0.15 0.18 0.23 0.26 0.26 0.18 0.14 0.12 0.16 0.28 0.49 0.53 0.56 0.62 0.75 0.77 0.76 0.76 0.83 0.87 0.89 0.92 0.97 0.89 0.83 0.78 0.72 0.77 0.90 1.01 1.14 1.12 1.20 1.30 1.23 1.19 1.21 1.18 1.22 1.31 1.40 1.56 1.61 1.66
0.25 0.21 0.27 0.32 0.26 0.19 0.14 0.13 0.14 0.32 0.59 0.60 0.61 0.64 0.75 0.84 0.85 0.76 0.77 0.82 0.91 0.96 0.93 0.78 0.73 0.72 0.73 0.76 0.83 0.89 1.00 1.15 1.24 1.31 1.26 1.19 1.24 1.34 1.35 1.48 1.54 1.52 1.46 1.48
0.37 0.44 0.58 0.39 0.26 0.22 0.22 0.21 0.22 0.28 0.38 0.47 0.61 0.63 0.62 0.71 0.83 0.85 0.87 0.94 0.95 0.89 0.84 0.80 0.79 0.81 0.83 0.83 0.88 0.98 1.01 1.12 1.22 1.25 1.22 1.22 1.22 1.30 1.41 1.58 1.64 1.56 1.40 1.40
0.51 0.60 0.52 0.43 0.37 0.35 0.38 0.39 0.36 0.45 0.43 0.49 0.55 0.60 0.74 0.65 0.69 0.72 0.88 0.92 0.96 0.96 0.98 0.99 0.95 1.01 1.05 1.00 1.02 1.11 1.21 1.28 1.26 1.29 1.33 1.36 1.40 1.46 1.53 1.58 1.59 1.62 1.51 1.44
0.67 0.80 0.81 0.67 0.57 0.49 0.52 0.85 0.65 0.61 0.62 0.70 0.74 0.85 1.01 0.82 0.71 0.77 0.86 0.86 0.92 0.90 0.94 1.04 1.07 1.21 1.27 1.28 1.27 1.31 1.40 1.50 1.53 1.62 1.69 1.65 1.75 1.86 1.86 1.84 1.77 1.80 1.70 1.61
0.87 0.99 0.99 0.78 0.66 0.62 1.03 1.23 0.81 0.72 0.77 0.76 0.81 0.93 0.95 0.93 0.92 0.91 0.76 0.73 0.79 0.89 0.89 0.99 1.17 1.39 1.54 1.52 1.44 1.50 1.61 1.74 1.90 2.00 2.17 2.33 2.41 2.29 2.20 2.19 2.18 2.00 1.86 1.82
1.21 1.38 1.31 0.84 0.78 1.12 1.34 1.01 1.03 0.92 0.85 0.84 0.79 0.87 0.93 0.94 0.90 0.77 0.75 0.75 0.80 0.93 0.93 0.98 1.15 1.35 1.53 1.56 1.58 1.75 1.89 2.05 2.18 2.38 2.47 2.56 2.89 2.93 2.91 2.84 2.56 2.28 2.20 2.06
1.33 1.43 1.17 1.01 1.17 1.26 1.23 1.20 1.23 1.26 1.07 0.97 0.89 0.91 0.94 0.86 0.78 0.71 0.73 0.74 0.79 0.95 1.07 1.10 1.19 1.42 1.67 1.73 1.80 1.92 2.04 2.24 2.39 2.47 2.62 2.76 2.89 2.88 2.91 2.84 2.57 2.38 2.33 2.24
1.44 1.55 1.33 1.25 1.26 1.30 1.28 1.23 1.23 1.31 1.43 1.40 1.14 0.99 1.01 0.97 0.87 0.85 0.91 0.88 0.88 0.98 1.13 1.32 1.43 1.60 1.86 1.91 2.03 2.10 2.15 2.27 2.37 2.47 2.60 2.77 2.91 2.82 2.75 2.69 2.61 2.52 2.46 2.41
1.80 1.79 1.64 1.51 1.54 1.65 1.55 1.41 1.42 1.42 1.47 1.53 1.24 1.02 0.97 1.04 1.01 0.99 1.08 1.11 1.09 1.12 1.23 1.44 1.62 1.78 1.85 1.90 2.09 2.28 2.28 2.32 2.42 2.46 2.47 2.58 2.64 2.72 2.64 2.59 2.61 2.60 2.59 2.62
2.01 1.83 1.94 1.80 1.51 1.61 1.73 1.58 1.59 1.54 1.44 1.30 1.19 1.14 1.14 1.13 1.11 1.11 1.22 1.25 1.25 1.24 1.31 1.47 1.64 1.85 1.95 2.08 2.22 2.33 2.37 2.31 2.38 2.44 2.44 2.44 2.43 2.32 2.27 2.23 2.19 2.11 2.19 2.25
1.67 1.55 1.68 1.69 1.61 1.64 1.81 1.70 1.49 1.42 1.40 1.37 1.29 1.16 1.16 1.14 1.09 1.13 1.20 1.21 1.26 1.33 1.36 1.43 1.57 1.79 2.01 2.23 2.43 2.55 2.55 2.53 2.53 2.63 2.69 2.65 2.63 2.52 2.39 2.27 2.09 1.88 1.77 1.75
1.64 1.65 1.70 1.72 1.81 1.74 1.78 1.69 1.47 1.32 1.30 1.35 1.37 1.25 1.19 1.19 1.18 1.24 1.34 1.28 1.21 1.27 1.40 1.45 1.52 1.70 1.91 2.11 2.34 2.49 2.53 2.63 2.64 2.63 2.70 2.71 2.69 2.64 2.53 2.36 2.22 1.98 1.71 1.57
1.77 1.84 1.90 1.88 1.89 1.86 1.83 1.70 1.69 1.48 1.32 1.30 1.37 1.37 1.33 1.31 1.33 1.28 1.27 1.18 1.11 1.16 1.28 1.46 1.59 1.66 1.80 1.89 1.98 2.13 2.25 2.38 2.44 2.42 2.40 2.46 2.53 2.49 2.41 2.32 2.17 1.99 1.72 1.60
1.75 1.87 1.88 1.89 1.95 1.94 1.89 1.82 1.73 1.54 1.36 1.35 1.40 1.32 1.33 1.35 1.32 1.24 1.16 1.18 1.24 1.28 1.33 1.49 1.56 1.66 1.84 1.96 2.07 2.16 2.22 2.31 2.31 2.23 2.12 2.07 2.07 2.09 2.04 2.05 2.03 1.95 1.81 1.64
1.81 1.89 1.90 1.94 1.87 1.85 1.91 1.92 1.76 1.55 1.41 1.36 1.40 1.35 1.26 1.20 1.18 1.15 1.12 1.11 1.15 1.24 1.36 1.51 1.55 1.53 1.71 1.99 2.15 2.16 2.13 2.08 2.07 2.01 1.91 1.82 1.83 1.92 1.98 2.00 1.94 1.84 1.72 1.60
1.74 1.73 1.72 1.82 1.83 1.77 1.74 1.73 1.78 1.67 1.50 1.42 1.35 1.33 1.31 1.27 1.14 1.07 1.04 1.05 1.10 1.11 1.14 1.27 1.37 1.44 1.51 1.70 1.90 1.98 1.99 1.90 1.78 1.73 1.72 1.68 1.64 1.71 1.77 1.75 1.63 1.54 1.45 1.32
1.51 1.50 1.50 1.56 1.65 1.70 1.70 1.66 1.72 1.70 1.56 1.50 1.47 1.45 1.39 1.37 1.23 1.11 1.02 1.04 1.17 1.26 1.18 1.20 1.36 1.36 1.43 1.55 1.70 1.71 1.78 1.82 1.72 1.56 1.54 1.62 1.53 1.49 1.44 1.39 1.32 1.26 1.15 1.08
1.43 1.37 1.40 1.54 1.64 1.76 1.83 1.72 1.60 1.63 1.67 1.60 1.56 1.54 1.46 1.43 1.35 1.29 1.20 1.17 1.28 1.38 1.37 1.33 1.22 1.19 1.33 1.56 1.69 1.60 1.61 1.66 1.64 1.54 1.49 1.46 1.41 1.36 1.23 1.20 1.17 1.15 1.10 1.06
1.51 1.47 1.51 1.56 1.58 1.66 1.76 1.66 1.50 1.53 1.55 1.54 1.52 1.48 1.43 1.42 1.37 1.37 1.39 1.37 1.30 1.28 1.24 1.27 1.18 1.14 1.17 1.39 1.52 1.49 1.47 1.46 1.48 1.45 1.44 1.43 1.38 1.30 1.20 1.19 1.15 1.10 1.03 0.98
1.65 1.59 1.54 1.49 1.41 1.42 1.49 1.49 1.33 1.28 1.31 1.37 1.38 1.33 1.34 1.35 1.38 1.37 1.31 1.36 1.37 1.37 1.21 1.15 1.14 1.14 1.13 1.18 1.20 1.33 1.41 1.33 1.27 1.22 1.22 1.19 1.22 1.24 1.17 1.10 1.02 0.90 0.84 0.83
1.60 1.53 1.40 1.33 1.27 1.25 1.24 1.19 1.13 1.15 1.22 1.29 1.36 1.43 1.46 1.38 1.35 1.48 1.43 1.24 1.22 1.19 1.09 1.09 1.10 1.06 0.99 0.96 1.06 1.17 1.28 1.27 1.22 1.12 1.07 1.04 1.00 0.99 0.97 0.94 0.86 0.80 0.80 0.78
1.30 1.35 1.29 1.15 1.14 1.17 1.21 1.20 1.15 1.12 1.15 1.24 1.31 1.41 1.54 1.55 1.44 1.39 1.35 1.26 1.11 0.96 0.87 0.92 0.88 0.84 0.82 0.79 0.89 1.01 1.13 1.14 1.10 1.00 0.93 0.89 0.81 0.81 0.86 0.87 0.80 0.76 0.73 0.69
1.13 1.11 1.15 1.14 1.11 1.20 1.25 1.21 1.16 1.09 1.13 1.20 1.22 1.31 1.48 1.57 1.61 1.45 1.20 1.02 0.93 0.81 0.75 0.78 0.79 0.78 0.74 0.76 0.85 0.98 1.08 1.08 1.05 0.97 0.87 0.81 0.75 0.74 0.79 0.80 0.74 0.67 0.61 0.56
1.18 1.15 1.20 1.23 1.19 1.24 1.25 1.24 1.26 1.25 1.30 1.37 1.37 1.35 1.37 1.30 1.29 1.22 1.08 0.97 0.88 0.83 0.76 0.77 0.78 0.76 0.76 0.87 0.94 1.00 1.04 1.04 1.01 0.94 0.81 0.75 0.70 0.72 0.77 0.75 0.67 0.63 0.56 0.49
1.25 1.24 1.28 1.34 1.40 1.37 1.31 1.30 1.34 1.40 1.50 1.62 1.70 1.61 1.52 1.41 1.32 1.15 1.00 0.94 0.87 0.82 0.82 0.80 0.74 0.69 0.73 0.85 0.94 0.98 0.96 0.94 0.86 0.81 0.78 0.74 0.70 0.71 0.73 0.68 0.61 0.55 0.47 0.44